DW8873 Weather Reports


Display with metric or nautical units.
time (UTC)temp
F
wind
direction
speed
MPH
gust
MPH
rain 1hr
in
rain 24hr
in
rain mn
in
humidity
%
barometer
mb
20260502231525 72 3 3.0 6.0 0.00 0.00 0.00 74 1021.8
20260502230523 70 344 2.0 3.0 0.00 0.00 0.00 80 1021.8
20260502225523 69 286 1.0 2.0 0.00 0.00 0.00 84 1022.1
20260502224521 67 286 0.0 2.0 0.00 0.00 0.00 87 1022.1
20260502223519 67 286 0.0 2.0 0.00 0.00 0.00 89 1022.1
20260502222518 66 286 0.0 1.0 0.00 0.00 0.00 94 1021.8
20260502221517 63 286 0.0 1.0 0.00 0.00 0.00 96 1021.8
20260502220444 62 286 0.0 1.0 0.00 0.00 0.00 96 1021.8
20260502215443 61 286 0.0 1.0 0.00 0.00 0.00 95 1021.8
20260502214441 61 286 0.0 0.0 0.00 0.00 0.00 95 1021.8
20260502213440 60 286 0.0 0.0 0.00 0.00 0.00 95 1021.4
20260502212336 60 286 0.0 2.0 0.00 0.00 0.00 95 1021.4
20260502211335 60 286 1.0 4.0 0.00 0.00 0.00 95 1021.4
20260502210336 60 286 1.0 4.0 0.00 0.00 0.00 95 1021.4
20260502205332 60 335 0.0 0.0 0.00 0.00 0.00 94 1021.1
20260502204331 60 335 0.0 0.0 0.00 0.00 0.00 94 1021.1
20260502203227 60 335 0.0 0.0 0.00 0.00 0.00 94 1021.1
20260502202155 60 335 0.0 0.0 0.00 0.00 0.00 94 1021.4
20260502201153 60 335 0.0 1.0 0.00 0.00 0.00 94 1021.4
20260502200152 60 335 0.0 1.0 0.00 0.00 0.00 94 1021.4
20260502195150 61 335 0.0 1.0 0.00 0.00 0.00 94 1021.4
20260502194149 61 335 0.0 0.0 0.00 0.00 0.00 94 1021.1
20260502193148 61 335 0.0 1.0 0.00 0.00 0.00 93 1021.1
20260502192146 61 335 0.0 2.0 0.00 0.00 0.00 93 1021.1
20260502191145 61 335 1.0 2.0 0.00 0.00 0.00 93 1021.1
20260502190143 61 335 0.0 0.0 0.00 0.00 0.00 93 1021.1
20260502185110 61 335 0.0 0.0 0.00 0.00 0.00 93 1020.7
20260502184108 61 335 0.0 0.0 0.00 0.00 0.00 92 1021.1
20260502183107 62 335 0.0 2.0 0.00 0.00 0.00 92 1021.1
20260502182023 62 335 1.0 2.0 0.00 0.00 0.00 92 1021.1
20260502181021 62 335 0.0 1.0 0.00 0.00 0.00 92 1021.1
20260502163906 64 335 1.0 2.0 0.00 0.00 0.00 88 1021.4
20260502162833 64 335 0.0 0.0 0.00 0.00 0.00 87 1021.4
20260502161831 64 335 0.0 0.0 0.00 0.00 0.00 87 1021.5
20260502160758 65 335 0.0 0.0 0.00 0.00 0.00 86 1021.8
20260502151720 68 335 1.0 10.0 0.00 0.00 0.00 80 1021.8
20260502150718 68 334 2.0 12.0 0.00 0.00 0.00 80 1021.8
20260502130630 68 343 0.0 6.0 0.00 0.00 0.00 82 1022.5
20260502123554 68 9 2.0 3.0 0.00 0.00 0.00 83 1022.5
20260502122552 68 14 1.0 2.0 0.00 0.00 0.00 83 1022.5
20260502121551 68 14 0.0 1.0 0.00 0.00 0.00 82 1022.8
20260502120518 68 14 1.0 2.0 0.00 0.00 0.00 82 1022.8
20260502115516 69 14 0.0 3.0 0.00 0.00 0.00 81 1022.8
20260502114515 69 14 1.0 3.0 0.00 0.00 0.00 80 1022.8
20260502113514 69 14 1.0 4.0 0.00 0.00 0.00 79 1022.8
20260502112512 70 41 1.0 6.0 0.00 0.00 0.00 79 1022.8
20260502111510 70 41 2.0 6.0 0.00 0.00 0.00 78 1022.8
20260502110437 70 359 3.0 5.0 0.00 0.00 0.00 78 1022.8
20260502105436 70 10 1.0 5.0 0.00 0.00 0.00 78 1022.8
20260502104402 70 354 2.0 11.0 0.00 0.00 0.00 77 1023.1
20260502103401 70 346 6.0 12.0 0.00 0.00 0.00 77 1022.8
20260502102400 70 356 3.0 10.0 0.00 0.00 0.00 77 1022.8
20260502101358 70 16 4.0 10.0 0.00 0.00 0.00 77 1022.5
20260502100357 71 15 3.0 10.0 0.00 0.00 0.00 77 1022.5
20260502091319 71 14 3.0 10.0 0.00 0.00 0.00 74 1022.4
20260502090317 71 356 4.0 10.0 0.00 0.00 0.00 73 1022.4
20260502071249 71 356 4.0 11.0 0.00 0.00 0.00 74 1021.8
20260502070248 71 11 4.0 13.0 0.00 0.00 0.00 75 1021.8
20260502065246 71 8 7.0 12.0 0.00 0.00 0.00 75 1021.8
20260502064142 72 16 5.0 12.0 0.00 0.00 0.00 77 1021.8
20260502063141 72 2 5.0 14.0 0.00 0.00 0.00 77 1021.8
20260502062139 72 351 5.0 14.0 0.00 0.00 0.00 76 1021.8
20260502061138 72 28 4.0 14.0 0.00 0.00 0.00 76 1021.8
20260502060136 72 356 6.0 14.0 0.00 0.00 0.00 74 1021.8
20260502055134 72 20 5.0 17.0 0.00 0.00 0.00 73 1021.8
20260502054133 72 34 8.0 17.0 0.00 0.00 0.00 72 1021.8
20260502053131 73 21 8.0 19.0 0.00 0.00 0.00 71 1021.8
20260502052130 73 18 10.0 19.0 0.00 0.00 0.00 69 1021.8
20260502051128 73 17 4.0 17.0 0.00 0.00 0.00 70 1021.8
20260502050126 73 350 9.0 19.0 0.00 0.00 0.00 69 1021.8
20260502045054 73 10 10.0 19.0 0.00 0.00 0.00 71 1021.8
20260502044052 73 8 4.0 17.0 0.00 0.00 0.00 72 1021.8
20260502043050 73 352 9.0 19.0 0.00 0.00 0.00 71 1022.1
20260502042049 74 12 9.0 20.0 0.00 0.00 0.00 70 1022.1
20260502041047 74 1 6.0 20.0 0.00 0.00 0.00 70 1021.8
20260502040014 74 344 7.0 15.0 0.00 0.00 0.00 70 1021.8
20260502035012 74 22 6.0 18.0 0.00 0.00 0.00 70 1022.1
20260502034011 74 8 10.0 19.0 0.00 0.00 0.00 69 1022.1
20260502033010 74 353 8.0 21.0 0.00 0.00 0.00 70 1022.1
20260502032008 74 344 6.0 21.0 0.00 0.00 0.00 69 1022.5
20260502031007 74 357 9.0 18.0 0.00 0.00 0.00 69 1022.5
20260502030005 74 359 6.0 17.0 0.00 0.00 0.00 71 1022.5
20260502025003 74 12 6.0 19.0 0.00 0.00 0.00 72 1022.8
20260502024001 73 8 10.0 18.0 0.00 0.00 0.00 72 1022.8
20260502023000 73 5 7.0 18.0 0.00 0.00 0.00 72 1023.1
20260502021958 72 350 8.0 15.0 0.00 0.00 0.00 72 1023.1
20260502020957 72 33 5.0 17.0 0.00 0.00 0.00 75 1023.5
20260502015955 71 349 8.0 19.0 0.00 0.00 0.00 75 1023.5
20260502014953 71 11 9.0 19.0 0.00 0.00 0.00 74 1023.8
20260502013952 70 2 7.0 14.0 0.00 0.00 0.00 77 1024.1
20260502012950 70 352 7.0 20.0 0.00 0.00 0.00 78 1024.1
20260502011948 72 8 12.0 18.0 0.00 0.00 0.00 74 1024.5
20260502010946 72 347 7.0 15.0 0.00 0.00 0.00 73 1024.1
20260502005945 72 349 3.0 8.0 0.00 0.00 0.00 75 1024.5
20260502004944 72 9 3.0 8.0 0.00 0.00 0.00 76 1024.5
20260502003942 71 11 3.0 10.0 0.00 0.00 0.00 76 1024.5
20260502002909 71 7 5.0 10.0 0.00 0.00 0.00 76 1024.5
20260502001907 72 306 1.0 3.0 0.00 0.00 0.00 76 1024.8
20260502000905 73 296 1.0 4.0 0.00 0.00 0.00 74 1024.8
20260501235802 73 245 2.0 4.0 0.00 0.00 0.00 76 1024.8
20260501234800 72 285 0.0 2.0 0.00 0.00 0.00 80 1025.2
20260501233727 70 285 1.0 2.0 0.00 0.00 0.00 84 1025.2
20260501232726 69 251 0.0 1.0 0.00 0.00 0.00 89 1025.1
20260501231724 67 251 1.0 1.0 0.00 0.00 0.00 91 1025.1